Location: Helsinki
(60.1699°N, 24.9384°E)
Time: 16:14:27
(UTC+02:00)

S-56A Canister/Altair - Pass Details

Date: 27 October 2020
Orbit: 633 x 2500 km, 38.9° (Epoch: 29 November)

Event Time Altitude Azimuth Distance (km) Brightness Sun altitude
Rises 09:43:23 0° 243° (WSW) 4,115 11.2 11.6°
Reaches altitude 10° 09:46:54 10° 226° (SW) 3,451 11.0 11.9°
Maximum altitude 09:52:41 19° 185° (S) 3,251 11.7 12.3°
Drops below altitude 10° 09:59:53 10° 147° (SSE) 4,437 15.0 12.7°
Sets 10:05:20 0° 133° (SE) 5,749 13.5 13.1°
